Location: Gro�sch�nbrunn
(49.5760°N, 11.8868°E)
Time: 21:41:41
(UTC+00:00)

MetOp-A - Pass Details

Date: 18 September 2020
Orbit: 820 x 821 km, 98.5° (Epoch: 21 October)

Event Time Altitude Azimuth Distance (km) Brightness Sun altitude
Exits shadow 18:22:26 - 141° (SE) 2,564 6.2 -11.1°
Reaches altitude 10° 18:22:49 10° 140° (SE) 2,414 6.1 -11.1°
Maximum altitude 18:27:55 48° 67° (ENE) 1,074 4.4 -11.9°
Drops below altitude 10° 18:33:03 10° 355° (N) 2,430 6.9 -12.7°
Sets 18:35:29 0° 350° (N) 3,367 7.7 -13.1°
